• în România
  • Lista ţărilor
  • Pe 7 zile
  • Temperatura apei
  • Hartă satelitară
  • Meteo pe hartă
  • Widget-uri
  • user-avatar
    Intrare

    Meteo pe oră la Kandi

    Astăzi, 21 Februarie, Miercuri

    Timp Temperatura Precipitaţii Vânt Presiune Umiditate
    00:00 +34°C° 0 mm 1 m/s 734 mmHg 33%
    01:00 +33°C° 0 mm 1 m/s 733 mmHg 34%
    02:00 +31°C° 0 mm 0 m/s 733 mmHg 36%
    03:00 +30°C° 0 mm 0 m/s 733 mmHg 37%
    04:00 +32°C° 0 mm 1 m/s 733 mmHg 39%
    05:00 +31°C° 0 mm 1 m/s 733 mmHg 40%
    06:00 +31°C° 0 mm 1 m/s 733 mmHg 42%
    07:00 +32°C° 0 mm 2 m/s 734 mmHg 41%
    08:00 +35°C° 0 mm 3 m/s 734 mmHg 39%
    09:00 +36°C° 0 mm 4 m/s 735 mmHg 38%
    10:00 +38°C° 0 mm 3 m/s 734 mmHg 32%
    11:00 +40°C° 0 mm 3 m/s 734 mmHg 27%
    12:00 +43°C° 0 mm 3 m/s 734 mmHg 21%
    13:00 +42°C° 0 mm 2 m/s 733 mmHg 21%
    14:00 +42°C° 0 mm 2 m/s 732 mmHg 20%
    15:00 +42°C° 0 mm 2 m/s 731 mmHg 19%
    16:00 +41°C° 0 mm 2 m/s 731 mmHg 21%
    17:00 +40°C° 0 mm 2 m/s 731 mmHg 24%
    18:00 +39°C° 0 mm 2 m/s 731 mmHg 26%
    19:00 +38°C° 0 mm 2 m/s 732 mmHg 28%
    20:00 +37°C° 0 mm 1 m/s 733 mmHg 31%
    21:00 +36°C° 0 mm 1 m/s 733 mmHg 33%
    22:00 +35°C° 0 mm 1 m/s 733 mmHg 34%
    23:00 +35°C° 0 mm 1 m/s 733 mmHg 35%

    Mâine, 22 Februarie, Joi

    Timp Temperatura Precipitaţii Vânt Presiune Umiditate
    00:00 +35°C° 0 mm 2 m/s 733 mmHg 37%
    01:00 +34°C° 0,7 mm 2 m/s 733 mmHg 41%
    02:00 +34°C° 0,7 mm 2 m/s 733 mmHg 45%
    03:00 +33°C° 0,7 mm 3 m/s 733 mmHg 49%
    04:00 +31°C° 0,5 mm 3 m/s 733 mmHg 51%
    05:00 +31°C° 0,5 mm 3 m/s 733 mmHg 53%
    06:00 +31°C° 0,5 mm 3 m/s 733 mmHg 56%
    07:00 +33°C° 0 mm 4 m/s 733 mmHg 53%
    08:00 +33°C° 0 mm 4 m/s 734 mmHg 51%
    09:00 +34°C° 0 mm 4 m/s 735 mmHg 48%
    10:00 +36°C° 0 mm 4 m/s 734 mmHg 44%
    11:00 +37°C° 0 mm 4 m/s 734 mmHg 39%
    12:00 +40°C° 0 mm 4 m/s 734 mmHg 35%
    13:00 +40°C° 0 mm 4 m/s 733 mmHg 34%
    14:00 +39°C° 0 mm 3 m/s 733 mmHg 33%
    15:00 +39°C° 0 mm 3 m/s 732 mmHg 32%
    16:00 +38°C° 0 mm 3 m/s 732 mmHg 33%
    17:00 +38°C° 0 mm 2 m/s 732 mmHg 34%
    18:00 +37°C° 0 mm 2 m/s 732 mmHg 35%
    19:00 +37°C° 0 mm 2 m/s 733 mmHg 37%
    20:00 +36°C° 0 mm 2 m/s 733 mmHg 38%
    21:00 +36°C° 0 mm 3 m/s 734 mmHg 40%
    22:00 +35°C° 0 mm 2 m/s 734 mmHg 41%
    23:00 +34°C° 0 mm 2 m/s 734 mmHg 42%

    Poimâine, 23 Februarie, Vineri

    Timp Temperatura Precipitaţii Vânt Presiune Umiditate
    00:00 +34°C° 0 mm 2 m/s 734 mmHg 43%
    01:00 +32°C° 0 mm 2 m/s 733 mmHg 45%
    02:00 +32°C° 0 mm 2 m/s 733 mmHg 46%
    03:00 +31°C° 0 mm 2 m/s 732 mmHg 48%
    04:00 +31°C° 0 mm 2 m/s 733 mmHg 49%
    05:00 +30°C° 0 mm 1 m/s 733 mmHg 51%
    06:00 +30°C° 0 mm 1 m/s 733 mmHg 52%
    07:00 +31°C° 0 mm 2 m/s 734 mmHg 48%
    08:00 +34°C° 0 mm 2 m/s 735 mmHg 44%
    09:00 +35°C° 0 mm 2 m/s 735 mmHg 40%
    10:00 +37°C° 0 mm 2 m/s 735 mmHg 36%
    11:00 +39°C° 0 mm 2 m/s 734 mmHg 31%
    12:00 +41°C° 0 mm 2 m/s 734 mmHg 27%
    13:00 +41°C° 0 mm 1 m/s 733 mmHg 26%
    14:00 +41°C° 0 mm 1 m/s 732 mmHg 26%
    15:00 +38°C° 0 mm 0 m/s 732 mmHg 26%
    16:00 +40°C° 0 mm 1 m/s 732 mmHg 27%
    17:00 +39°C° 0 mm 1 m/s 732 mmHg 28%
    18:00 +39°C° 0 mm 1 m/s 732 mmHg 29%
    19:00 +37°C° 0 mm 1 m/s 733 mmHg 31%
    20:00 +36°C° 0 mm 1 m/s 733 mmHg 33%
    21:00 +36°C° 0 mm 1 m/s 734 mmHg 34%
    22:00 +35°C° 0,3 mm 1 m/s 734 mmHg 37%
    23:00 +34°C° 0,3 mm 1 m/s 734 mmHg 39%

    24 Februarie, Sâmbătă

    Timp Temperatura Precipitaţii Vânt Presiune Umiditate
    00:00 +33°C° 0,3 mm 1 m/s 734 mmHg 42%
    01:00 +33°C° 0,3 mm 1 m/s 734 mmHg 44%
    02:00 +34°C° 0,3 mm 2 m/s 733 mmHg 47%
    03:00 +32°C° 0,3 mm 2 m/s 733 mmHg 49%
    04:00 +32°C° 0 mm 2 m/s 733 mmHg 52%
    05:00 +31°C° 0 mm 2 m/s 734 mmHg 55%
    06:00 +31°C° 0 mm 2 m/s 734 mmHg 58%
    07:00 +32°C° 0,4 mm 2 m/s 735 mmHg 55%
    08:00 +32°C° 0,4 mm 2 m/s 736 mmHg 52%
    09:00 +34°C° 0,4 mm 2 m/s 736 mmHg 49%
    10:00 +36°C° 0 mm 2 m/s 736 mmHg 44%
    11:00 +37°C° 0 mm 2 m/s 735 mmHg 39%
    12:00 +39°C° 0 mm 2 m/s 735 mmHg 34%
    13:00 +40°C° 0 mm 1 m/s 734 mmHg 32%
    14:00 +40°C° 0 mm 1 m/s 733 mmHg 31%
    15:00 +41°C° 0 mm 1 m/s 733 mmHg 29%
    16:00 +40°C° 0 mm 1 m/s 733 mmHg 30%
    17:00 +36°C° 0 mm 0 m/s 733 mmHg 31%
    18:00 +35°C° 0 mm 0 m/s 734 mmHg 32%
    19:00 +37°C° 0,4 mm 1 m/s 734 mmHg 35%
    20:00 +36°C° 0,4 mm 1 m/s 735 mmHg 37%
    21:00 +35°C° 0,4 mm 1 m/s 735 mmHg 39%
    22:00 +34°C° 0,8 mm 1 m/s 735 mmHg 43%
    23:00 +33°C° 0,8 mm 1 m/s 735 mmHg 46%

    25 Februarie, Duminică

    Timp Temperatura Precipitaţii Vânt Presiune Umiditate
    00:00 +34°C° 0,8 mm 2 m/s 735 mmHg 50%
    01:00 +32°C° 0,1 mm 1 m/s 735 mmHg 51%
    02:00 +32°C° 0,1 mm 1 m/s 734 mmHg 53%
    03:00 +32°C° 0,1 mm 1 m/s 734 mmHg 54%
    04:00 +31°C° 0,1 mm 1 m/s 734 mmHg 55%
    05:00 +31°C° 0,1 mm 1 m/s 735 mmHg 56%
    06:00 +31°C° 0,1 mm 1 m/s 735 mmHg 56%
    07:00 +32°C° 0 mm 2 m/s 736 mmHg 53%
    08:00 +34°C° 0 mm 2 m/s 736 mmHg 49%
    09:00 +35°C° 0 mm 2 m/s 736 mmHg 46%
    10:00 +37°C° 0 mm 2 m/s 736 mmHg 40%
    11:00 +39°C° 0 mm 1 m/s 735 mmHg 34%
    12:00 +41°C° 0 mm 1 m/s 735 mmHg 27%
    13:00 +42°C° 0 mm 1 m/s 734 mmHg 25%
    14:00 +42°C° 0 mm 1 m/s 734 mmHg 23%
    15:00 +42°C° 0 mm 2 m/s 733 mmHg 21%
    16:00 +41°C° 0 mm 1 m/s 733 mmHg 22%
    17:00 +41°C° 0 mm 1 m/s 733 mmHg 23%
    18:00 +40°C° 0 mm 1 m/s 734 mmHg 24%
    19:00 +39°C° 0,1 mm 1 m/s 734 mmHg 26%
    20:00 +37°C° 0,1 mm 1 m/s 735 mmHg 28%
    21:00 +36°C° 0,1 mm 1 m/s 735 mmHg 30%
    22:00 +36°C° 0,3 mm 1 m/s 735 mmHg 32%
    23:00 +35°C° 0,3 mm 1 m/s 735 mmHg 33%

    26 Februarie, Luni

    Timp Temperatura Precipitaţii Vânt Presiune Umiditate
    00:00 +35°C° 0,3 mm 1 m/s 735 mmHg 34%
    01:00 +34°C° 0 mm 1 m/s 734 mmHg 36%
    02:00 +34°C° 0 mm 1 m/s 734 mmHg 37%
    03:00 +34°C° 0 mm 1 m/s 734 mmHg 38%
    04:00 +33°C° 0 mm 1 m/s 734 mmHg 40%
    05:00 +33°C° 0 mm 1 m/s 734 mmHg 42%
    06:00 +32°C° 0 mm 1 m/s 735 mmHg 44%
    07:00 +33°C° 0 mm 1 m/s 735 mmHg 42%
    08:00 +34°C° 0 mm 1 m/s 736 mmHg 41%
    09:00 +35°C° 0 mm 1 m/s 736 mmHg 39%
    10:00 +37°C° 0 mm 1 m/s 736 mmHg 33%
    11:00 +40°C° 0 mm 1 m/s 735 mmHg 28%
    12:00 +42°C° 0 mm 1 m/s 735 mmHg 22%
    13:00 +42°C° 0 mm 2 m/s 734 mmHg 20%
    14:00 +43°C° 0 mm 2 m/s 734 mmHg 17%
    15:00 +43°C° 0 mm 2 m/s 733 mmHg 15%
    16:00 +42°C° 0 mm 2 m/s 733 mmHg 15%
    17:00 +41°C° 0 mm 1 m/s 733 mmHg 15%
    18:00 +40°C° 0 mm 1 m/s 733 mmHg 15%
    19:00 +39°C° 0 mm 1 m/s 734 mmHg 16%
    20:00 +37°C° 0 mm 1 m/s 734 mmHg 17%
    21:00 +36°C° 0 mm 1 m/s 734 mmHg 17%
    22:00 +37°C° 0 mm 2 m/s 735 mmHg 21%
    23:00 +36°C° 0 mm 2 m/s 735 mmHg 25%
    Arată mai mult